Погода в Семипалатинске

Погода в Семипалатинске : погода сейчас, прогноз погоды и архив. Всё, что Вы хотите узнать о погоде в Семипалатинске!

Хотите узнать прогноз погоды в Семипалатинске? Тогда Вам сюда: Погода в Семипалатинске

Поиск расширенной информации на нашем сайте:

Другие новости

Новости СМИ2

Главная страница сайта

Новости сайта

03.07.2017

Напоминаем, что на нашем специализированном сайте Метеоцентр.Азия вы можете получить высокодетализированные автоматические прогнозы погоды по пунктам России, СНГ и мира в авиационном формате (включающие направление и скорость ветра, видимость, явления погоды, количество и форму облачности, нижнюю и верхнюю границу облачности).

Рекомендуем: игры драки на http://proxgame.com

Погода в Семипалатинске - сегодня

Время (UTC), дата Ветер
(°,м/с) 
Видим.   Явления Облачность Т
(°С)
Тd
(°С)
f(%) Тe
(°С)
Pmin
(гПа)
dP
(гПа)
Po
(мм)
O2
(г/м3)
Тmin Tmax R s Состояние
почвы
00 13.10.18 180 (Ю) н/о    10/10 600 м кучево-дожд. 
[Cb calv]
+13.4 +3.2 50 +14  1004.3  -1.1  736  282           
18 13.10.18 290 (З) н/о    ясно 
-0.2 -0.8 96 -1  1015.4  1.8  743  300    +19.3  0.4     
21 13.10.18 тихо ()   н/о    9/9 600 м кучево-дожд. 
[Cb calv]
+1.2 +0.1 92 +1  1015.9  0.6  744  298           
00 14.10.18 180 (Ю) н/о    4/4 600 м кучево-дожд. 
[Cb calv]
+3.4 -1.3 71 +1  1017  1.3  745  296           
03 14.10.18 230 (ЮЗ) 10  10 км  в посл. час ливневой снег  9/9 600 м кучево-дожд. 
[Cb calv]
+4.4 -3.7 56 +1  1019.2  2.2  746  296           
09 14.10.18 270 (З) 10 км    8/6 600 м кучево-дожд., средняя, верхняя 
[Cb calv|Ac trans|Ci fib]
+6.7 -9.2 31 +5  1024.8  1.2  751  296           
12 14.10.18 200 (Ю) 10 км    4/4 600 м кучево-дожд. 
[Cb calv]
+6.4 -10.4 29 +4  1025.3  0.5  751  297           
21 14.10.18 тихо ()   н/о    ясно 
+0 -3.9 75 1026.7  752  303           
00 15.10.18 180 (Ю) н/о    ясно 
-4.1 -5.6 89 -5  1026.5  -0.5  751  308           
06 15.10.18 160 (Ю) 10 км    6/4 600 м кучево-дожд., средняя, верхняя 
[Cb calv|Ac trans|Ci fib]
+9.6 -4.2 37 +8  1021.4  -2.9  748  292  -4.4         
09 15.10.18 090 (В) 10 км    8/4 600 м кучево-дожд., средняя, верхняя 
[Cb calv|Ac trans|Ci fib]
+10.8 -4.1 35 +9  1018.4  -2.9  746  290           
12 15.10.18 090 (В) 10 км    9/6 1000 м средняя, верхняя 
[Sc diur, vesp|Ac trans|Ci fib]
+7.8 -5.6 38 +8  1017  -1.6  745  292           
15 15.10.18 070 (В) н/о    9/9 1000 м 
[Sc]
+6.7 -4.9 43 +7  1014.9  -2.1  743  293    +11.4       
18 15.10.18 110 (В) н/о    10/10 1000 м 
[Sc]
+5.6 -4.2 49 +5  1013.3  -1.7  742  293    +11.4       
21 15.10.18 090 (В) н/о    10/10 1000 м 
[Sc]
+5.4 -1.6 61 +5  1011.5  -1.7  741  293           
00 16.10.18 090 (В) н/о    10/10 600 м кучево-дожд. 
[Cb calv]
+6.9 +0.9 66 +7  1011.1  -0.3  741  291           
03 16.10.18 140 (ЮВ) 10 км  {ливн. осадки}  9/8 600 м кучево-дожд., средняя, верхняя 
[Cb calv|Ac trans|Ci fib]
+10 +1.4 55 +10  1012.4  1.5  742  288      0.0     
09 16.10.18 250 (З) 10 км    9/6 600 м кучево-дожд., средняя 
[Cb calv|Ac trans]
+10 -8.5 26 +8  1016.8  1.9  745  290           
12 16.10.18 250 (З) 10 км    9/4 1000 м средняя, верхняя 
[Sc diur, vesp|Ac trans|Ci fib]
+8.1 -5.1 39 +8  1019.4  2.4  747  293           
15 16.10.18 230 (ЮЗ) н/о    9/3 1000 м средняя, верхняя 
[Sc|Ac trans|Ci fib]
+3.2 -5.1 54 +3  1021.6  1.7  748  298    +11.1       
18 16.10.18 230 (ЮЗ) н/о    9/6 1000 м средняя 
[Sc|Ac trans]
+0.5 -5.3 65 1023.3  1.4  749  302    +11.1       
21 16.10.18 тихо ()   н/о    8/3 1000 м средняя, верхняя 
[Sc|Ac trans|Ci fib]
-0.3 -4.8 72 -0  1024  0.7  750  303           
00 17.10.18 тихо ()   н/о    9/0 средняя, верхняя 
[Ac trans|Ci fib]
-2 -4.8 81 -2  1024.7  0.5  750  305           
06 17.10.18 230 (ЮЗ) 10 км    8/4 1000 м средняя 
[Cu hum|Ac trans]
+7.2 -5.8 39 +5  1024.7  0.2  751  295  -2.8         
09 17.10.18 230 (ЮЗ) 10 км    9/9 600 м кучево-дожд. 
[Cb calv]
+7 -12.1 24 +5  1024.6  -0.1  750  296           
Время (UTC), дата Ветер
(°,м/с) 
Видим.   Явления Облачность Т
(°С)
Тd
(°С)
f(%) Тe
(°С)
Pmin
(гПа)
dP
(гПа)
Po
(мм)
O2
(г/м3)
Тmin Tmax R s Состояние
почвы

Для получения пояснительной информации подведите курсор к названию столбца.

ПОГОДА в Семипалатинске - архив

Всё, что Вы хотите узнать о погоде в Семипалатинске - удобно и подробно!

Выберите нужную дату (начиная с 1 января 2015* года) и нажмите кнопку "Найти".
Будут отображены архивные сводки погоды по пункту Семипалатинск, начиная с указанной даты.


Отображать данные в формате CSV (для использования в таблицах Excel)


Внимание! Наш архив погоды предназначен исключительно для личного некоммерческого использования в познавательных целях. Если Вам необходимы официальные справки о состоянии погоды (для производственных, юридических, коммерческих и т.п. целей), обращайтесь в органы Росгидромета.

*Примечание: данная дата относится к архиву по метеостанциям СССР (Россия, СНГ, Балтия).
Архив по метеостанциям Зарубежной Европы и Азии (кроме Китая) хранится 10 дней, по другим регионам земного шара (Китай, Африка, Америка, Австралия, Океания) - 1 день.

Семипалатинск - район местоположения метеостанции


Название, широта, долгота, высота метеостанции:
Семипалатинск 50.4°ш. 80.3°д. 196 м над ур. моря [Казахстан]

Дополнительная информация

В oтличие oт бoльшинства пoгoдных сайтoв мы публикуем пoдрoбную метеoинфoрмацию в детальнoм прoфессиoнальнoм фoрмате.

Характеристики температуры и влажнoсти вoздуха измеряются на высoте 2 м в тени вдали oт зданий и деревьев.
Скoрoсть ветра измеряется на высoте 10 м (на урoвне рoста челoвека скoрoсть ветра ниже в 1.5-2 раза). Если метеoстанция нахoдится в гoрoде или в лесу, тo скoрoсть ветра занижена на 2-4 м/с пo сравнению с oткрытым местoм. Скoрoсть ветра над акватoриями крупных рек и oзёр, а также на вершинах хoлмoв на 2-5 м/с выше, чем в oбычных услoвиях.
Атмoсфернoе давление в разных тoчках местнoсти мoжет значительнo oтличаться oт давления на метеoстанции, в зависимoсти oт услoвий рельефа (при пoдъёме на 10 м давление пoнижается примернo на 1 мм рт.ст.).